This is the latest recevied weather packets stored in our database for station/object KF0JJO. If no packets are shown the sender has not sent any weather packets the latest 10 day(s).
| Time | Temp. | Humidity | Pressure | Rain* | Wind** | Luminosity | Snow |
|---|---|---|---|---|---|---|---|
| 1777346749 | 7.22° C | 92% | 1035.7 hPa | 0 mm | - | 0 W/m² | - |
| 1777346444 | 7.22° C | 91% | 1035.7 hPa | 0 mm | - | 0 W/m² | - |
| 1777346142 | 7.22° C | 91% | 1035.5 hPa | 0 mm | - | 0 W/m² | - |
| 1777345838 | 7.22° C | 91% | 1035.4 hPa | 1.78 mm | - | 0 W/m² | - |
| 1777345536 | 7.22° C | 91% | 1035.4 hPa | 0 mm | - | 0 W/m² | - |
| 1777345233 | 7.22° C | 91% | 1035.3 hPa | 0 mm | - | 0 W/m² | - |
| 1777344929 | 7.22° C | 90% | 1035.1 hPa | 0 mm | - | 0 W/m² | - |
| 1777344626 | 7.78° C | 91% | 1035.2 hPa | 1.27 mm | - | 0 W/m² | - |
| 1777344323 | 7.78° C | 91% | 1034.7 hPa | 0 mm | - | 0 W/m² | - |
| 1777343717 | 7.78° C | 91% | 1034.8 hPa | 1.78 mm | - | 0 W/m² | - |
| 1777343415 | 7.78° C | 91% | 1034.3 hPa | 1.27 mm | - | 0 W/m² | - |
| 1777343113 | 7.78° C | 92% | 1034.4 hPa | 1.27 mm | - | 0 W/m² | - |
| 1777342506 | 8.33° C | 91% | 1034 hPa | 1.78 mm | - | 0 W/m² | - |
| 1777341291 | 8.33° C | 92% | 1033.7 hPa | 0 mm | - | 0 W/m² | - |
| 1777340686 | 8.89° C | 93% | 1033.3 hPa | 0 mm | - | 0 W/m² | - |
| 1777339778 | 8.33° C | 94% | 1032.9 hPa | 0 mm | - | 0 W/m² | - |
| 1777339476 | 8.33° C | 94% | 1033 hPa | 0 mm | - | 0 W/m² | - |
| 1777338871 | 8.33° C | 94% | 1032.6 hPa | 0 mm | - | 1 W/m² | - |
| 1777337960 | 8.33° C | 94% | 1032.3 hPa | 0 mm | - | 2 W/m² | - |
| 1777337658 | 8.33° C | 94% | 1032.1 hPa | 0 mm | - | 3 W/m² | - |
| 1777337355 | 8.33° C | 94% | 1032 hPa | 0 mm | - | 4 W/m² | - |
| 1777336146 | 8.33° C | 94% | 1032 hPa | 1.78 mm | - | 12 W/m² | - |
| 1777335843 | 8.33° C | 93% | 1031.6 hPa | 0 mm | - | 13 W/m² | - |
| 1777335237 | 8.33° C | 93% | 1031.5 hPa | 0 mm | - | 21 W/m² | - |
* Rain latest hour (hover to see other rain measurements)
** Current wind speed in m/s (hover to see current wind gust speed)